User: anonymous   Login
Location: Waning Moon II Observatory
(30.3730°N, 89.7620°W)
Time: 16:42:20
(UTC-06:00)
Language:

Cosmos 1825 Rocket - Orbit

View from above orbital plane
View from above orbital plane
View from above satellite
View from above satellite

Ground track
Ground track

The orbit data is extracted from the following two-line orbital elements,

1 17567U 87024B   15031.82233907  .00000431  00000-0  49645-4 0  5773
2 17567 082.5300 290.6674 0018231 330.6274 095.0965 14.83313820507874
Epoch (UTC): 31 January 2015 19:44:10
Eccentricity: 0.0018231
inclination: 82.5300°
perigee height: 606 km
apogee height: 631 km
right ascension of ascending node: 290.6674°
argument of perigee: 330.6274°
revolutions per day: 14.83313820
mean anomaly at epoch: 95.0965°
orbit number at epoch: 50787

The dashed part of the orbit path shows where the satellite is in the earth's shadow,  

DLR